Weather History for Point Salines, Grenada

Change the Weather History Date:

Monday, May 6, 2013

  Actual Average Record
Temperature  
Mean Temperature 82 °F -  
Max Temperature 85 °F 85 °F 87 °F (1998)
Min Temperature 78 °F 77 °F 75 °F (2000)
Cooling Degree Days 16    
Growing Degree Days 32 (Base 50)    
Moisture  
Dew Point 76 °F    
Average Humidity 80    
Maximum Humidity 89    
Minimum Humidity 70    
Precipitation  
Precipitation 0.00 in - - ()
Sea Level Pressure  
Sea Level Pressure 29.96 in    
Wind  
Wind Speed 14 mph ()    
Max Wind Speed 18 mph    
Max Gust Speed -    
Visibility 6.6 miles    
Events      
Averages and records for this station are not official NWS values.
T = Trace of Precipitation, MM = Missing Value Source: Averaged Metar Reports

Daily Weather History Graph

Daily Weather History Graph

Search for Another Location

Airport:

Trip Planner

Search our weather history database for the weather conditions in past years. The results will help you decide how hot, cold, wet, or windy it might be!

Date:

Astronomy

May. 06, 2013 Rise Set
Actual Time 5:45 AM AST 6:21 PM AST
Civil Twilight 5:23 AM AST 6:44 PM AST
Nautical Twilight 4:57 AM AST 7:10 PM AST
Astronomical Twilight 4:31 AM AST 7:36 PM AST
Moon 3:12 AM AST (5/6) 3:44 PM AST (5/6)
Length of Visible Light 13h 20m
Length of Day
12h 36m
Waning Crescent, 11% of the Moon is Illuminated
May 6
Waning Crescent
May 9
New
May 18
First Quarter
May 25
Full
May 31
Last Quarter

Hourly Weather History & Observations

Time (AST) Temp. Heat Index Dew Point Humidity Pressure Visibility Wind Dir Wind Speed Gust Speed Precip Events Conditions
12:00 AM 80.6 °F 87.1 °F 77.0 °F 89% 29.95 in 6.2 mi ESE 17.3 mph - N/A   Mostly Cloudy
1:00 AM 80.6 °F 87.1 °F 77.0 °F 89% 29.92 in 6.2 mi East 16.1 mph - N/A   Mostly Cloudy
2:00 AM 80 °F - 76 °F 85% 29.92 in 7 mi ESE 11.5 mph - -   Widespread Dust
2:00 AM 80.6 °F 87.1 °F 77.0 °F 89% 29.92 in 6.2 mi ESE 11.5 mph - N/A   Mostly Cloudy
3:00 AM 80.6 °F 87.1 °F 77.0 °F 89% 29.89 in 6.2 mi ESE 13.8 mph - N/A   Mostly Cloudy
4:00 AM 80.6 °F 86.2 °F 75.2 °F 84% 29.92 in 6.2 mi ESE 17.3 mph - N/A   Mostly Cloudy
5:00 AM 80 °F - 76 °F 84% 29.94 in 7 mi ESE 15.0 mph - -   Widespread Dust
5:00 AM 80.6 °F 86.2 °F 75.2 °F 84% 29.95 in 6.2 mi ESE 15.0 mph - N/A   Mostly Cloudy
6:00 AM 80.6 °F 86.2 °F 75.2 °F 84% 29.95 in 6.2 mi ESE 17.3 mph - N/A   Mostly Cloudy
7:00 AM 82.4 °F 90.9 °F 77.0 °F 84% 29.98 in 5.6 mi ESE 15.0 mph - N/A   Scattered Clouds
8:00 AM 83 °F - 76 °F 74% 29.99 in 6 mi ESE 11.5 mph - -   Widespread Dust
8:00 AM 84.2 °F 94.1 °F 77.0 °F 79% 29.98 in 6.2 mi ESE 11.5 mph - N/A   Scattered Clouds
9:00 AM 84.2 °F 92.3 °F 75.2 °F 74% 30.01 in 6.2 mi ESE 17.3 mph - N/A   Mostly Cloudy
10:00 AM 84.2 °F 94.1 °F 77.0 °F 79% 30.01 in 6.2 mi East 18.4 mph - N/A   Mostly Cloudy
11:00 AM 84 °F - 76 °F 70% 30.01 in 7 mi East 18.4 mph - -   Widespread Dust
11:00 AM 84.2 °F 92.3 °F 75.2 °F 74% 30.01 in 6.2 mi East 18.4 mph - N/A   Mostly Cloudy
12:00 PM 84.2 °F 94.1 °F 77.0 °F 79% 29.98 in 6.2 mi ESE 18.4 mph - N/A   Mostly Cloudy
1:00 PM 84.2 °F 94.1 °F 77.0 °F 79% 29.98 in 6.2 mi ESE 18.4 mph - N/A   Mostly Cloudy
2:00 PM 85 °F - 77 °F 71% 29.96 in 7 mi ESE 18.4 mph - -   Widespread Dust
2:00 PM 84.2 °F 94.1 °F 77.0 °F 79% 29.95 in 6.2 mi ESE 18.4 mph - N/A   Mostly Cloudy
3:00 PM 84.2 °F 92.3 °F 75.2 °F 74% 29.92 in 6.2 mi ESE 16.1 mph - N/A   Mostly Cloudy
4:00 PM 84.2 °F 92.3 °F 75.2 °F 74% 29.92 in 6.2 mi ESE 17.3 mph - N/A   Mostly Cloudy
5:00 PM 84 °F - 76 °F 71% 29.91 in 10 mi ESE 15.0 mph - -   Widespread Dust
5:00 PM 84.2 °F 94.1 °F 77.0 °F 79% 29.92 in 6.2 mi ESE 15.0 mph - N/A   Mostly Cloudy
6:00 PM 84.2 °F 92.3 °F 75.2 °F 74% 29.92 in 6.2 mi East 13.8 mph - N/A   Scattered Clouds
7:00 PM 80.6 °F 86.2 °F 75.2 °F 84% 29.92 in 6.2 mi East 13.8 mph - N/A   Partly Cloudy
8:00 PM 80 °F - 74 °F 78% 29.97 in 11 mi East 11.5 mph - -   Widespread Dust
8:00 PM 80.6 °F 86.2 °F 75.2 °F 84% 29.95 in 6.2 mi East 11.5 mph - N/A   Partly Cloudy
9:00 PM 80.6 °F 85.4 °F 73.4 °F 79% 29.98 in 6.2 mi East 12.7 mph - N/A   Mostly Cloudy
10:00 PM 80.6 °F 86.2 °F 75.2 °F 84% 30.01 in 6.2 mi ESE 15.0 mph - N/A   Mostly Cloudy
11:00 PM 80 °F - 73 °F 74% 30.02 in 9 mi ESE 13.8 mph - -   Widespread Dust
11:00 PM 80.6 °F 85.4 °F 73.4 °F 79% 30.01 in 6.2 mi ESE 13.8 mph - N/A   Mostly Cloudy